Tracking 20626 objects as of 10-Apr-2020
HD Live streaming from Space Station
objects crossing your sky now

LEASAT 4 PKM

Track LEASAT 4 PKM now!
10-day predictions


NORAD ID: 16001
Int'l Code: 1985-076F
Perigee: 374.3 km
Apogee: 14,182.5 km
Inclination: 27.4 °
Period: 264.5 minutes
Semi major axis: 13649 km
RCS: 3.8918 m2 (large)
Launch date: August 27, 1985
Source: United States (US)
Launch site: AIR FORCE EASTERN TEST RANGE (AFETR)

Note: This is a ROCKET BODY
aabbcc
Your satellite tracking list
Your tracking list is empty




NASA's NSSDC Master Catalog

Two Line Element Set (TLE):
1 16001U 85076F   20100.37958917 +.00000282 +00000-0 +10719-3 0  9999
2 16001 027.3667 142.1251 5058156 037.2615 349.0048 05.44418660668355
Source of the keplerian elements: AFSPC